Time,TemperatureF,DewpointF,PressureIn,WindDirection,WindDirectionDegrees,WindSpeedMPH,WindSpeedGustMPH,Humidity,HourlyPrecipIn,Conditions,Clouds,dailyrainin,SoftwareType,DateUTC
2013-04-17 00:08:00,66.1,14.0,29.60,WNW,302,2.0,5.0,13,0.00,,,0.00,weatherlink.com 1.10,2013-04-17 06:08:00,
2013-04-17 00:24:00,64.9,14.0,29.60,NW,318,0.0,5.0,14,0.00,,,0.00,weatherlink.com 1.10,2013-04-17 06:24:00,
2013-04-17 00:39:00,64.8,16.0,29.60,NNW,347,4.0,6.0,15,0.00,,,0.00,weatherlink.com 1.10,2013-04-17 06:39:00,
2013-04-17 00:54:00,65.2,16.0,29.60,NNW,328,1.0,5.0,15,0.00,,,0.00,weatherlink.com 1.10,2013-04-17 06:54:00,
2013-04-17 01:09:00,64.9,19.0,29.59,WNW,296,2.0,8.0,17,0.00,,,0.00,weatherlink.com 1.10,2013-04-17 07:09:00,
2013-04-17 01:24:00,65.4,16.0,29.59,NNW,330,4.0,11.0,15,0.00,,,0.00,weatherlink.com 1.10,2013-04-17 07:24:00,
2013-04-17 01:39:00,65.0,18.0,29.59,NNW,338,1.0,6.0,16,0.00,,,0.00,weatherlink.com 1.10,2013-04-17 07:39:00,
2013-04-17 01:54:00,64.4,21.0,29.59,NW,321,1.0,5.0,19,0.00,,,0.00,weatherlink.com 1.10,2013-04-17 07:54:00,
2013-04-17 02:09:00,64.0,19.0,29.59,NW,323,3.0,4.0,18,0.00,,,0.00,weatherlink.com 1.10,2013-04-17 08:09:00,
2013-04-17 02:24:00,63.4,19.0,29.59,West,277,4.0,9.0,18,0.00,,,0.00,weatherlink.com 1.10,2013-04-17 08:24:00,
2013-04-17 02:39:00,63.6,19.0,29.58,SW,236,0.0,8.0,18,0.00,,,0.00,weatherlink.com 1.10,2013-04-17 08:39:00,
2013-04-17 02:54:00,63.1,20.0,29.58,WNW,298,5.0,11.0,19,0.00,,,0.00,weatherlink.com 1.10,2013-04-17 08:54:00,
2013-04-17 03:09:00,62.6,20.0,29.58,West,274,3.0,6.0,19,0.00,,,0.00,weatherlink.com 1.10,2013-04-17 09:09:00,
2013-04-17 03:24:00,61.7,20.0,29.57,WSW,252,1.0,3.0,20,0.00,,,0.00,weatherlink.com 1.10,2013-04-17 09:24:00,
2013-04-17 03:39:00,61.1,20.0,29.57,West,266,0.0,4.0,20,0.00,,,0.00,weatherlink.com 1.10,2013-04-17 09:39:00,
2013-04-17 03:54:00,60.9,19.0,29.57,West,276,1.0,4.0,20,0.00,,,0.00,weatherlink.com 1.10,2013-04-17 09:54:00,
2013-04-17 04:09:00,60.7,20.0,29.57,WSW,241,0.0,6.0,21,0.00,,,0.00,weatherlink.com 1.10,2013-04-17 10:09:00,
2013-04-17 04:24:00,60.4,19.0,29.57,SE,139,2.0,4.0,20,0.00,,,0.00,weatherlink.com 1.10,2013-04-17 10:24:00,
2013-04-17 04:39:00,60.1,19.0,29.57,South,172,0.0,3.0,20,0.00,,,0.00,weatherlink.com 1.10,2013-04-17 10:39:00,
2013-04-17 04:54:00,59.7,19.0,29.57,ESE,108,0.0,2.0,21,0.00,,,0.00,weatherlink.com 1.10,2013-04-17 10:54:00,
2013-04-17 05:09:00,59.7,19.0,29.57,WSW,239,1.0,3.0,21,0.00,,,0.00,weatherlink.com 1.10,2013-04-17 11:09:00,
2013-04-17 05:24:00,60.2,21.0,29.57,West,281,6.0,12.0,22,0.00,,,0.00,weatherlink.com 1.10,2013-04-17 11:24:00,
2013-04-17 05:39:00,60.1,21.0,29.57,WNW,298,2.0,12.0,22,0.00,,,0.00,weatherlink.com 1.10,2013-04-17 11:39:00,
2013-04-17 05:54:00,59.3,21.0,29.57,WNW,293,2.0,7.0,23,0.00,,,0.00,weatherlink.com 1.10,2013-04-17 11:54:00,
2013-04-17 06:09:00,58.5,22.0,29.57,NNE,30,1.0,3.0,24,0.00,,,0.00,weatherlink.com 1.10,2013-04-17 12:09:00,
2013-04-17 06:24:00,58.0,21.0,29.58,NNE,31,0.0,4.0,24,0.00,,,0.00,weatherlink.com 1.10,2013-04-17 12:24:00,
2013-04-17 06:39:00,58.5,23.0,29.58,NNE,29,0.0,3.0,25,0.00,,,0.00,weatherlink.com 1.10,2013-04-17 12:39:00,
2013-04-17 06:54:00,58.3,23.0,29.58,West,259,0.0,3.0,26,0.00,,,0.00,weatherlink.com 1.10,2013-04-17 12:54:00,
2013-04-17 07:09:00,58.0,23.0,29.59,East,96,0.0,2.0,26,0.00,,,0.00,weatherlink.com 1.10,2013-04-17 13:09:00,
2013-04-17 07:24:00,57.4,23.0,29.59,SE,138,0.0,1.0,27,0.00,,,0.00,weatherlink.com 1.10,2013-04-17 13:24:00,
2013-04-17 07:39:00,57.3,24.0,29.60,ESE,106,0.0,1.0,28,0.00,,,0.00,weatherlink.com 1.10,2013-04-17 13:39:00,
2013-04-17 07:54:00,59.8,26.0,29.59,NW,304,0.0,2.0,27,0.00,,,0.00,weatherlink.com 1.10,2013-04-17 13:54:00,
2013-04-17 08:09:00,61.6,25.0,29.60,ENE,60,1.0,3.0,25,0.00,,,0.00,weatherlink.com 1.10,2013-04-17 14:09:00,
2013-04-17 08:24:00,62.4,27.0,29.61,West,271,2.0,11.0,26,0.00,,,0.00,weatherlink.com 1.10,2013-04-17 14:24:00,
2013-04-17 08:39:00,62.4,27.0,29.61,West,280,4.0,6.0,26,0.00,,,0.00,weatherlink.com 1.10,2013-04-17 14:39:00,
2013-04-17 08:54:00,62.5,27.0,29.60,West,259,7.0,12.0,26,0.00,,,0.00,weatherlink.com 1.10,2013-04-17 14:54:00,
2013-04-17 09:09:00,63.3,27.0,29.60,West,279,1.0,8.0,25,0.00,,,0.00,weatherlink.com 1.10,2013-04-17 15:09:00,
2013-04-17 09:25:00,64.7,28.0,29.60,West,267,4.0,8.0,25,0.00,,,0.00,weatherlink.com 1.10,2013-04-17 15:25:00,
2013-04-17 09:40:00,65.3,28.0,29.58,SW,218,3.0,9.0,25,0.00,,,0.00,weatherlink.com 1.10,2013-04-17 15:40:00,
2013-04-17 09:55:00,66.6,26.0,29.58,SW,221,3.0,12.0,22,0.00,,,0.00,weatherlink.com 1.10,2013-04-17 15:55:00,
2013-04-17 10:10:00,67.8,25.0,29.58,SW,231,7.0,14.0,20,0.00,,,0.00,weatherlink.com 1.10,2013-04-17 16:10:00,
2013-04-17 10:25:00,68.6,23.0,29.57,SSW,198,8.0,16.0,18,0.00,,,0.00,weatherlink.com 1.10,2013-04-17 16:25:00,
2013-04-17 10:40:00,69.3,21.0,29.57,WSW,249,7.0,16.0,16,0.00,,,0.00,weatherlink.com 1.10,2013-04-17 16:40:00,
2013-04-17 10:55:00,70.3,20.0,29.57,WSW,252,13.0,18.0,15,0.00,,,0.00,weatherlink.com 1.10,2013-04-17 16:55:00,
2013-04-17 11:10:00,70.8,22.0,29.56,WSW,243,14.0,20.0,16,0.00,,,0.00,weatherlink.com 1.10,2013-04-17 17:10:00,
2013-04-17 11:25:00,71.0,16.0,29.56,West,259,7.0,19.0,12,0.00,,,0.00,weatherlink.com 1.10,2013-04-17 17:25:00,
2013-04-17 11:40:00,71.9,18.0,29.55,SW,218,10.0,22.0,13,0.00,,,0.00,weatherlink.com 1.10,2013-04-17 17:40:00,
2013-04-17 11:55:00,72.3,17.0,29.54,WSW,242,11.0,22.0,12,0.00,,,0.00,weatherlink.com 1.10,2013-04-17 17:55:00,
2013-04-17 12:10:00,73.0,15.0,29.54,SW,229,21.0,23.0,11,0.00,,,0.00,weatherlink.com 1.10,2013-04-17 18:10:00,
2013-04-17 12:25:00,72.9,13.0,29.53,SW,219,11.0,25.0,10,0.00,,,0.00,weatherlink.com 1.10,2013-04-17 18:25:00,
2013-04-17 12:40:00,74.8,12.0,29.52,SW,226,13.0,22.0,9,0.00,,,0.00,weatherlink.com 1.10,2013-04-17 18:40:00,
2013-04-17 12:55:00,75.2,7.0,29.52,SSW,203,12.0,32.0,7,0.00,,,0.00,weatherlink.com 1.10,2013-04-17 18:55:00,
2013-04-17 13:10:00,75.5,10.0,29.51,WSW,243,16.0,25.0,8,0.00,,,0.00,weatherlink.com 1.10,2013-04-17 19:10:00,
2013-04-17 13:25:00,76.4,11.0,29.50,WSW,249,10.0,21.0,8,0.00,,,0.00,weatherlink.com 1.10,2013-04-17 19:25:00,
2013-04-17 13:40:00,75.9,10.0,29.50,WSW,258,15.0,30.0,8,0.00,,,0.00,weatherlink.com 1.10,2013-04-17 19:40:00,
2013-04-17 13:55:00,75.9,10.0,29.50,SW,225,14.0,35.0,8,0.00,,,0.00,weatherlink.com 1.10,2013-04-17 19:55:00,
2013-04-17 14:10:00,75.6,10.0,29.48,West,263,11.0,25.0,8,0.00,,,0.00,weatherlink.com 1.10,2013-04-17 20:10:00,
2013-04-17 14:25:00,75.7,13.0,29.49,West,270,20.0,27.0,9,0.00,,,0.00,weatherlink.com 1.10,2013-04-17 20:25:00,
2013-04-17 14:40:00,76.1,13.0,29.49,West,259,20.0,32.0,9,0.00,,,0.00,weatherlink.com 1.10,2013-04-17 20:40:00,
2013-04-17 14:55:00,76.3,16.0,29.48,WSW,238,12.0,24.0,10,0.00,,,0.00,weatherlink.com 1.10,2013-04-17 20:55:00,
2013-04-17 15:10:00,76.0,16.0,29.48,West,262,14.0,29.0,10,0.00,,,0.00,weatherlink.com 1.10,2013-04-17 21:10:00,
2013-04-17 15:25:00,76.2,20.0,29.47,West,269,13.0,22.0,12,0.00,,,0.00,weatherlink.com 1.10,2013-04-17 21:25:00,
2013-04-17 15:40:00,76.0,16.0,29.47,West,271,26.0,28.0,10,0.00,,,0.00,weatherlink.com 1.10,2013-04-17 21:40:00,
2013-04-17 15:55:00,75.1,15.0,29.47,SW,228,11.0,27.0,10,0.00,,,0.00,weatherlink.com 1.10,2013-04-17 21:55:00,
2013-04-17 16:10:00,75.1,19.0,29.47,West,263,15.0,29.0,12,0.00,,,0.00,weatherlink.com 1.10,2013-04-17 22:10:00,
2013-04-17 16:25:00,75.2,21.0,29.47,SW,225,15.0,26.0,13,0.00,,,0.00,weatherlink.com 1.10,2013-04-17 22:25:00,
2013-04-17 16:40:00,74.5,22.0,29.47,West,262,7.0,30.0,14,0.00,,,0.00,weatherlink.com 1.10,2013-04-17 22:40:00,
2013-04-17 16:55:00,74.0,25.0,29.47,WNW,287,6.0,26.0,16,0.00,,,0.00,weatherlink.com 1.10,2013-04-17 22:55:00,
2013-04-17 17:10:00,73.0,24.0,29.47,WNW,288,7.0,26.0,16,0.00,,,0.00,weatherlink.com 1.10,2013-04-17 23:10:00,
2013-04-17 17:25:00,72.6,24.0,29.48,West,277,7.0,28.0,16,0.00,,,0.00,weatherlink.com 1.10,2013-04-17 23:25:00,
2013-04-17 17:40:00,71.9,23.0,29.49,West,267,16.0,27.0,16,0.00,,,0.00,weatherlink.com 1.10,2013-04-17 23:40:00,
2013-04-17 17:55:00,71.1,23.0,29.50,West,269,18.0,24.0,16,0.00,,,0.00,weatherlink.com 1.10,2013-04-17 23:55:00,
2013-04-17 18:10:00,70.3,23.0,29.50,West,281,8.0,21.0,17,0.00,,,0.00,weatherlink.com 1.10,2013-04-18 00:10:00,
2013-04-17 18:25:00,69.5,23.0,29.52,WNW,291,11.0,28.0,17,0.00,,,0.00,weatherlink.com 1.10,2013-04-18 00:25:00,
2013-04-17 18:40:00,67.3,22.0,29.53,West,276,13.0,23.0,18,0.00,,,0.00,weatherlink.com 1.10,2013-04-18 00:40:00,
2013-04-17 18:55:00,65.0,23.0,29.54,North,350,8.0,20.0,20,0.00,,,0.00,weatherlink.com 1.10,2013-04-18 00:55:00,
2013-04-17 19:11:00,63.6,23.0,29.56,NW,316,13.0,21.0,21,0.00,,,0.00,weatherlink.com 1.10,2013-04-18 01:11:00,
2013-04-17 19:25:00,62.2,20.0,29.57,WNW,300,7.0,22.0,20,0.00,,,0.00,weatherlink.com 1.10,2013-04-18 01:25:00,
2013-04-17 19:56:00,60.3,18.0,29.60,NW,309,13.0,21.0,19,0.00,,,0.00,weatherlink.com 1.10,2013-04-18 01:56:00,
2013-04-17 20:11:00,59.4,17.0,29.61,WNW,296,5.0,20.0,19,0.00,,,0.00,weatherlink.com 1.10,2013-04-18 02:11:00,
2013-04-17 20:41:00,57.6,15.0,29.64,NNW,334,11.0,21.0,19,0.00,,,0.00,weatherlink.com 1.10,2013-04-18 02:41:00,
2013-04-17 20:56:00,56.9,16.0,29.65,NNW,341,8.0,20.0,20,0.00,,,0.00,weatherlink.com 1.10,2013-04-18 02:56:00,
2013-04-17 21:11:00,56.1,16.0,29.66,WNW,298,10.0,29.0,21,0.00,,,0.00,weatherlink.com 1.10,2013-04-18 03:11:00,
2013-04-17 21:26:00,55.2,17.0,29.67,NW,308,12.0,22.0,22,0.00,,,0.00,weatherlink.com 1.10,2013-04-18 03:26:00,
2013-04-17 21:41:00,54.6,16.0,29.68,WNW,300,10.0,20.0,22,0.00,,,0.00,weatherlink.com 1.10,2013-04-18 03:41:00,
2013-04-17 21:56:00,54.0,16.0,29.69,NNW,335,15.0,21.0,22,0.00,,,0.00,weatherlink.com 1.10,2013-04-18 03:56:00,
2013-04-17 22:11:00,53.6,15.0,29.71,NNW,338,11.0,18.0,22,0.00,,,0.00,weatherlink.com 1.10,2013-04-18 04:11:00,
2013-04-17 22:26:00,53.1,16.0,29.72,North,349,17.0,17.0,23,0.00,,,0.00,weatherlink.com 1.10,2013-04-18 04:26:00,
2013-04-17 22:41:00,53.0,16.0,29.73,NW,314,8.0,18.0,23,0.00,,,0.00,weatherlink.com 1.10,2013-04-18 04:41:00,
2013-04-17 22:56:00,52.9,15.0,29.72,NNW,333,5.0,17.0,22,0.00,,,0.00,weatherlink.com 1.10,2013-04-18 04:56:00,
2013-04-17 23:26:00,52.4,14.0,29.73,North,359,9.0,19.0,22,0.00,,,0.00,weatherlink.com 1.10,2013-04-18 05:26:00,
2013-04-17 23:41:00,52.3,14.0,29.73,NNW,332,3.0,20.0,22,0.00,,,0.00,weatherlink.com 1.10,2013-04-18 05:41:00,
2013-04-17 23:56:00,51.7,16.0,29.74,North,356,9.0,17.0,24,0.00,,,0.00,weatherlink.com 1.10,2013-04-18 05:56:00,